When you browse on this site, cookies collect data to enhance your experience and personalize the content and advertising you see.
Visit our Privacy Policy to learn more. By continuing to use the site, you agree to this use of cookies and data.
  • în România
  • Lista ţărilor
  • Pe 7 zile
  • Temperatura apei
  • Hartă satelitară
  • Meteo pe hartă
  • Widget-uri
  • user-avatar
    Intrare

    Meteo pe oră la Lago d'Arno

    Astăzi, 17 Iulie, Miercuri

    Timp Temperatura Precipitaţii Vânt Presiune Umiditate
    00:00 +9°C° 0 mm 1 m/s 607 mmHg 89%
    01:00 +9°C° 0 mm 1 m/s 607 mmHg 90%
    02:00 +8°C° 0 mm 1 m/s 607 mmHg 89%
    03:00 +8°C° 0 mm 1 m/s 606 mmHg 89%
    04:00 +8°C° 0 mm 1 m/s 606 mmHg 89%
    05:00 +9°C° 0 mm 1 m/s 607 mmHg 87%
    06:00 +10°C° 0 mm 0 m/s 607 mmHg 85%
    07:00 +11°C° 0 mm 0 m/s 608 mmHg 83%
    08:00 +13°C° 0.4 mm 1 m/s 608 mmHg 79%
    09:00 +14°C° 0.4 mm 1 m/s 609 mmHg 76%
    10:00 +15°C° 0.4 mm 1 m/s 609 mmHg 73%
    11:00 +16°C° 0.8 mm 2 m/s 609 mmHg 74%
    12:00 +16°C° 0.8 mm 2 m/s 608 mmHg 74%
    13:00 +16°C° 0.8 mm 2 m/s 608 mmHg 74%
    14:00 +16°C° 0.8 mm 2 m/s 608 mmHg 75%
    15:00 +16°C° 0.8 mm 2 m/s 608 mmHg 76%
    16:00 +16°C° 0.8 mm 2 m/s 608 mmHg 77%
    17:00 +15°C° 0.8 mm 2 m/s 608 mmHg 82%
    18:00 +14°C° 0.8 mm 1 m/s 607 mmHg 86%
    19:00 +13°C° 0.8 mm 1 m/s 607 mmHg 90%
    20:00 +12°C° 1.3 mm 1 m/s 606 mmHg 90%
    21:00 +11°C° 1.3 mm 1 m/s 606 mmHg 90%
    22:00 +9°C° 1.3 mm 0 m/s 606 mmHg 91%
    23:00 +9°C° 0.3 mm 1 m/s 606 mmHg 90%

    Mâine, 18 Iulie, Joi

    Timp Temperatura Precipitaţii Vânt Presiune Umiditate
    00:00 +9°C° 0.3 mm 1 m/s 605 mmHg 90%
    01:00 +8°C° 0.3 mm 1 m/s 605 mmHg 90%
    02:00 +8°C° 0 mm 1 m/s 605 mmHg 90%
    03:00 +8°C° 0 mm 1 m/s 605 mmHg 90%
    04:00 +8°C° 0 mm 1 m/s 605 mmHg 90%
    05:00 +9°C° 0.2 mm 1 m/s 605 mmHg 88%
    06:00 +10°C° 0.2 mm 1 m/s 606 mmHg 87%
    07:00 +10°C° 0.2 mm 0 m/s 606 mmHg 85%
    08:00 +12°C° 0.9 mm 1 m/s 607 mmHg 83%
    09:00 +13°C° 0.9 mm 1 m/s 607 mmHg 81%
    10:00 +14°C° 0.9 mm 1 m/s 607 mmHg 79%
    11:00 +14°C° 1.5 mm 1 m/s 607 mmHg 80%
    12:00 +14°C° 1.5 mm 1 m/s 607 mmHg 81%
    13:00 +14°C° 1.5 mm 1 m/s 607 mmHg 82%
    14:00 +14°C° 1.1 mm 1 m/s 607 mmHg 82%
    15:00 +14°C° 1.1 mm 1 m/s 607 mmHg 82%
    16:00 +14°C° 1.1 mm 1 m/s 607 mmHg 82%
    17:00 +14°C° 0.8 mm 1 m/s 607 mmHg 84%
    18:00 +13°C° 0.8 mm 1 m/s 607 mmHg 87%
    19:00 +12°C° 0.8 mm 0 m/s 607 mmHg 89%
    20:00 +11°C° 0.1 mm 1 m/s 607 mmHg 90%
    21:00 +10°C° 0.1 mm 1 m/s 607 mmHg 90%
    22:00 +9°C° 0.1 mm 1 m/s 607 mmHg 90%
    23:00 +9°C° 0 mm 1 m/s 607 mmHg 90%

    Poimâine, 19 Iulie, Vineri

    Timp Temperatura Precipitaţii Vânt Presiune Umiditate
    00:00 +8°C° 0 mm 1 m/s 607 mmHg 89%
    01:00 +8°C° 0 mm 1 m/s 607 mmHg 89%
    02:00 +8°C° 0 mm 1 m/s 607 mmHg 89%
    03:00 +8°C° 0 mm 1 m/s 607 mmHg 89%
    04:00 +8°C° 0 mm 1 m/s 607 mmHg 89%
    05:00 +9°C° 0 mm 1 m/s 607 mmHg 87%
    06:00 +9°C° 0 mm 0 m/s 608 mmHg 85%
    07:00 +11°C° 0 mm 0 m/s 608 mmHg 82%
    08:00 +13°C° 0.1 mm 1 m/s 609 mmHg 77%
    09:00 +14°C° 0.1 mm 1 m/s 610 mmHg 71%
    10:00 +16°C° 0.1 mm 2 m/s 610 mmHg 66%
    11:00 +16°C° 1 mm 2 m/s 610 mmHg 72%
    12:00 +16°C° 1 mm 2 m/s 610 mmHg 77%
    13:00 +15°C° 1 mm 2 m/s 610 mmHg 83%
    14:00 +15°C° 1.2 mm 2 m/s 609 mmHg 84%
    15:00 +15°C° 1.2 mm 2 m/s 609 mmHg 85%
    16:00 +15°C° 1.2 mm 2 m/s 609 mmHg 87%
    17:00 +14°C° 0.5 mm 1 m/s 609 mmHg 89%
    18:00 +14°C° 0.5 mm 1 m/s 609 mmHg 92%
    19:00 +13°C° 0.5 mm 1 m/s 609 mmHg 94%
    20:00 +12°C° 0 mm 1 m/s 609 mmHg 95%
    21:00 +11°C° 0 mm 1 m/s 609 mmHg 95%
    22:00 +10°C° 0 mm 1 m/s 609 mmHg 95%
    23:00 +10°C° 0 mm 1 m/s 608 mmHg 95%

    20 Iulie, Sâmbătă

    Timp Temperatura Precipitaţii Vânt Presiune Umiditate
    00:00 +9°C° 0 mm 1 m/s 608 mmHg 94%
    01:00 +9°C° 0 mm 1 m/s 608 mmHg 94%
    02:00 +9°C° 0 mm 1 m/s 608 mmHg 94%
    03:00 +9°C° 0 mm 1 m/s 608 mmHg 94%
    04:00 +8°C° 0 mm 1 m/s 608 mmHg 94%
    05:00 +9°C° 0 mm 0 m/s 608 mmHg 92%
    06:00 +10°C° 0 mm 0 m/s 609 mmHg 91%
    07:00 +11°C° 0 mm 0 m/s 610 mmHg 90%
    08:00 +13°C° 0.1 mm 1 m/s 610 mmHg 85%
    09:00 +15°C° 0.1 mm 1 m/s 611 mmHg 79%
    10:00 +16°C° 0.1 mm 1 m/s 612 mmHg 74%
    11:00 +16°C° 0.8 mm 2 m/s 611 mmHg 77%
    12:00 +16°C° 0.8 mm 2 m/s 611 mmHg 81%
    13:00 +16°C° 0.8 mm 2 m/s 611 mmHg 84%
    14:00 +16°C° 1 mm 2 m/s 611 mmHg 85%
    15:00 +16°C° 1 mm 2 m/s 611 mmHg 86%
    16:00 +16°C° 1 mm 2 m/s 611 mmHg 87%
    17:00 +15°C° 0.4 mm 1 m/s 611 mmHg 89%
    18:00 +14°C° 0.4 mm 1 m/s 611 mmHg 91%
    19:00 +14°C° 0.4 mm 1 m/s 611 mmHg 92%
    20:00 +13°C° 0.2 mm 1 m/s 611 mmHg 93%
    21:00 +12°C° 0.2 mm 1 m/s 611 mmHg 93%
    22:00 +10°C° 0.2 mm 1 m/s 610 mmHg 94%
    23:00 +10°C° 0 mm 1 m/s 610 mmHg 93%

    21 Iulie, Duminică

    Timp Temperatura Precipitaţii Vânt Presiune Umiditate
    00:00 +10°C° 0 mm 1 m/s 610 mmHg 92%
    01:00 +10°C° 0 mm 1 m/s 610 mmHg 91%
    02:00 +10°C° 0 mm 1 m/s 610 mmHg 91%
    03:00 +9°C° 0 mm 1 m/s 610 mmHg 90%
    04:00 +9°C° 0 mm 1 m/s 610 mmHg 90%
    05:00 +11°C° 0 mm 1 m/s 610 mmHg 88%
    06:00 +11°C° 0 mm 0 m/s 611 mmHg 85%
    07:00 +12°C° 0 mm 0 m/s 612 mmHg 83%
    08:00 +15°C° 0 mm 1 m/s 613 mmHg 76%
    09:00 +18°C° 0 mm 1 m/s 614 mmHg 69%
    10:00 +19°C° 0 mm 1 m/s 614 mmHg 63%
    11:00 +20°C° 0.2 mm 1 m/s 614 mmHg 63%
    12:00 +19°C° 0.2 mm 2 m/s 614 mmHg 63%
    13:00 +20°C° 0.2 mm 2 m/s 615 mmHg 63%
    14:00 +19°C° 0.4 mm 2 m/s 614 mmHg 67%
    15:00 +19°C° 0.4 mm 2 m/s 614 mmHg 70%
    16:00 +19°C° 0.4 mm 2 m/s 614 mmHg 73%
    17:00 +19°C° 0.6 mm 1 m/s 613 mmHg 79%
    18:00 +18°C° 0.6 mm 1 m/s 613 mmHg 86%
    19:00 +16°C° 0.6 mm 1 m/s 613 mmHg 92%
    20:00 +15°C° 0.5 mm 1 m/s 613 mmHg 92%
    21:00 +13°C° 0.5 mm 1 m/s 613 mmHg 92%
    22:00 +12°C° 0.5 mm 1 m/s 612 mmHg 92%
    23:00 +12°C° 0.1 mm 1 m/s 612 mmHg 92%

    22 Iulie, Luni

    Timp Temperatura Precipitaţii Vânt Presiune Umiditate
    00:00 +12°C° 0.1 mm 1 m/s 612 mmHg 92%
    01:00 +11°C° 0.1 mm 1 m/s 612 mmHg 92%
    02:00 +11°C° 0 mm 1 m/s 611 mmHg 91%
    03:00 +11°C° 0 mm 1 m/s 611 mmHg 91%
    04:00 +11°C° 0 mm 1 m/s 611 mmHg 91%
    05:00 +12°C° 0 mm 1 m/s 612 mmHg 88%
    06:00 +13°C° 0 mm 1 m/s 612 mmHg 86%
    07:00 +15°C° 0 mm 1 m/s 613 mmHg 83%
    08:00 +16°C° 0.2 mm 1 m/s 613 mmHg 77%
    09:00 +19°C° 0.2 mm 1 m/s 614 mmHg 70%
    10:00 +21°C° 0.2 mm 1 m/s 614 mmHg 64%
    11:00 +21°C° 0.4 mm 1 m/s 614 mmHg 64%
    12:00 +21°C° 0.4 mm 1 m/s 614 mmHg 64%
    13:00 +20°C° 0.4 mm 2 m/s 614 mmHg 64%
    14:00 +20°C° 0.7 mm 2 m/s 614 mmHg 67%
    15:00 +20°C° 0.7 mm 2 m/s 613 mmHg 71%
    16:00 +19°C° 0.7 mm 2 m/s 613 mmHg 75%
    17:00 +19°C° 0.8 mm 1 m/s 612 mmHg 80%
    18:00 +18°C° 0.8 mm 1 m/s 612 mmHg 85%
    19:00 +16°C° 0.8 mm 1 m/s 612 mmHg 89%
    20:00 +15°C° 0.2 mm 1 m/s 611 mmHg 90%
    21:00 +13°C° 0.2 mm 0 m/s 611 mmHg 90%
    22:00 +12°C° 0.2 mm 0 m/s 611 mmHg 91%
    23:00 +12°C° 0 mm 0 m/s 611 mmHg 91%
    Arată mai mult